• In Austria
  • List of Countries
  • For 7 days
  • Water Temperature
  • Satellite Maps
  • Weather Map
  • News
  • Weather Widgets
  • user-avatar
    Login

    Hourly Weather Yoro

    Today, 18 October, Thursday

    Time Temperature Precipitation Wind Pressure Humidity
    00:00 +22°C° 0.2 mm 1 mps 698 mmHg 96%
    01:00 +22°C° 0 mm 1 mps 698 mmHg 95%
    02:00 +22°C° 0 mm 1 mps 698 mmHg 95%
    03:00 +22°C° 0 mm 1 mps 698 mmHg 95%
    04:00 +22°C° 0 mm 1 mps 698 mmHg 95%
    05:00 +22°C° 0 mm 1 mps 698 mmHg 96%
    06:00 +21°C° 0 mm 1 mps 698 mmHg 96%
    07:00 +23°C° 0 mm 1 mps 699 mmHg 88%
    08:00 +25°C° 0 mm 1 mps 700 mmHg 80%
    09:00 +27°C° 0 mm 1 mps 700 mmHg 72%
    10:00 +28°C° 0.6 mm 1 mps 700 mmHg 73%
    11:00 +28°C° 0.6 mm 1 mps 700 mmHg 74%
    12:00 +28°C° 0.6 mm 2 mps 699 mmHg 75%
    13:00 +28°C° 2 mm 1 mps 699 mmHg 78%
    14:00 +28°C° 2 mm 1 mps 698 mmHg 80%
    15:00 +27°C° 2 mm 1 mps 697 mmHg 83%
    16:00 +26°C° 2.6 mm 1 mps 698 mmHg 87%
    17:00 +25°C° 2.6 mm 1 mps 698 mmHg 92%
    18:00 +23°C° 2.6 mm 1 mps 698 mmHg 96%
    19:00 +23°C° 1.8 mm 1 mps 699 mmHg 96%
    20:00 +23°C° 1.8 mm 1 mps 699 mmHg 96%
    21:00 +22°C° 1.8 mm 1 mps 700 mmHg 97%
    22:00 +22°C° 1 mm 1 mps 700 mmHg 97%
    23:00 +22°C° 1 mm 1 mps 700 mmHg 96%

    Tomorrow, 19 October, Friday

    Time Temperature Precipitation Wind Pressure Humidity
    00:00 +22°C° 1 mm 1 mps 700 mmHg 96%
    01:00 +21°C° 0.1 mm 1 mps 699 mmHg 96%
    02:00 +21°C° 0.1 mm 1 mps 699 mmHg 95%
    03:00 +21°C° 0.1 mm 1 mps 699 mmHg 95%
    04:00 +21°C° 0 mm 1 mps 699 mmHg 95%
    05:00 +21°C° 0 mm 1 mps 699 mmHg 95%
    06:00 +19°C° 0 mm 0 mps 699 mmHg 95%
    07:00 +20°C° 0 mm 0 mps 700 mmHg 90%
    08:00 +22°C° 0 mm 0 mps 701 mmHg 84%
    09:00 +24°C° 0 mm 0 mps 701 mmHg 79%
    10:00 +27°C° 0 mm 1 mps 701 mmHg 71%
    11:00 +29°C° 0 mm 1 mps 700 mmHg 63%
    12:00 +30°C° 0 mm 1 mps 700 mmHg 55%
    13:00 +30°C° 0.1 mm 1 mps 699 mmHg 60%
    14:00 +29°C° 0.1 mm 1 mps 699 mmHg 64%
    15:00 +28°C° 0.1 mm 1 mps 698 mmHg 68%
    16:00 +27°C° 0.3 mm 1 mps 698 mmHg 76%
    17:00 +25°C° 0.3 mm 1 mps 698 mmHg 84%
    18:00 +24°C° 0.3 mm 1 mps 698 mmHg 91%
    19:00 +23°C° 0.7 mm 1 mps 699 mmHg 93%
    20:00 +21°C° 0.7 mm 0 mps 699 mmHg 95%
    21:00 +21°C° 0.7 mm 0 mps 700 mmHg 96%
    22:00 +21°C° 0.5 mm 0 mps 700 mmHg 97%
    23:00 +21°C° 0.5 mm 0 mps 699 mmHg 97%

    Day after tomorrow, 20 October, Saturday

    Time Temperature Precipitation Wind Pressure Humidity
    00:00 +21°C° 0.5 mm 0 mps 699 mmHg 97%
    01:00 +20°C° 0.2 mm 0 mps 699 mmHg 98%
    02:00 +20°C° 0.2 mm 0 mps 698 mmHg 98%
    03:00 +20°C° 0.2 mm 0 mps 698 mmHg 98%
    04:00 +20°C° 0.2 mm 0 mps 698 mmHg 98%
    05:00 +20°C° 0.2 mm 0 mps 698 mmHg 98%
    06:00 +20°C° 0.2 mm 0 mps 699 mmHg 98%
    07:00 +21°C° 0.2 mm 0 mps 699 mmHg 92%
    08:00 +23°C° 0.2 mm 0 mps 700 mmHg 86%
    09:00 +25°C° 0.2 mm 0 mps 701 mmHg 80%
    10:00 +27°C° 0.8 mm 1 mps 700 mmHg 78%
    11:00 +28°C° 0.8 mm 1 mps 700 mmHg 76%
    12:00 +28°C° 0.8 mm 1 mps 699 mmHg 74%
    13:00 +28°C° 1.4 mm 1 mps 698 mmHg 78%
    14:00 +27°C° 1.4 mm 1 mps 698 mmHg 81%
    15:00 +27°C° 1.4 mm 1 mps 697 mmHg 85%
    16:00 +26°C° 1.4 mm 1 mps 697 mmHg 88%
    17:00 +25°C° 1.4 mm 1 mps 698 mmHg 92%
    18:00 +24°C° 1.4 mm 1 mps 698 mmHg 96%
    19:00 +21°C° 1.9 mm 0 mps 698 mmHg 96%
    20:00 +21°C° 1.9 mm 0 mps 699 mmHg 97%
    21:00 +21°C° 1.9 mm 0 mps 700 mmHg 97%
    22:00 +21°C° 0.8 mm 0 mps 699 mmHg 98%
    23:00 +21°C° 0.8 mm 0 mps 699 mmHg 98%

    21 October, Sunday

    Time Temperature Precipitation Wind Pressure Humidity
    00:00 +21°C° 0.8 mm 0 mps 699 mmHg 98%
    01:00 +20°C° 0.2 mm 0 mps 699 mmHg 98%
    02:00 +20°C° 0.2 mm 0 mps 699 mmHg 98%
    03:00 +20°C° 0.2 mm 0 mps 698 mmHg 98%
    04:00 +20°C° 0.1 mm 0 mps 699 mmHg 98%
    05:00 +20°C° 0.1 mm 0 mps 699 mmHg 98%
    06:00 +20°C° 0.1 mm 0 mps 699 mmHg 98%
    07:00 +21°C° 0 mm 0 mps 700 mmHg 91%
    08:00 +23°C° 0 mm 0 mps 701 mmHg 84%
    09:00 +25°C° 0 mm 0 mps 701 mmHg 77%
    10:00 +28°C° 0.1 mm 1 mps 701 mmHg 69%
    11:00 +30°C° 0.1 mm 1 mps 700 mmHg 60%
    12:00 +31°C° 0.1 mm 1 mps 700 mmHg 51%
    13:00 +31°C° 0.1 mm 1 mps 699 mmHg 53%
    14:00 +30°C° 0.1 mm 1 mps 698 mmHg 55%
    15:00 +30°C° 0.1 mm 1 mps 698 mmHg 57%
    16:00 +28°C° 0.1 mm 1 mps 698 mmHg 67%
    17:00 +26°C° 0.1 mm 1 mps 698 mmHg 78%
    18:00 +23°C° 0.1 mm 1 mps 698 mmHg 88%
    19:00 +23°C° 0.1 mm 1 mps 699 mmHg 91%
    20:00 +20°C° 0.1 mm 0 mps 699 mmHg 93%
    21:00 +20°C° 0.1 mm 0 mps 700 mmHg 95%
    22:00 +20°C° 0.3 mm 0 mps 700 mmHg 96%
    23:00 +20°C° 0.3 mm 0 mps 699 mmHg 96%

    22 October, Monday

    Time Temperature Precipitation Wind Pressure Humidity
    00:00 +20°C° 0.3 mm 0 mps 699 mmHg 96%
    01:00 +19°C° 0 mm 0 mps 699 mmHg 96%
    02:00 +19°C° 0 mm 0 mps 699 mmHg 97%
    03:00 +19°C° 0 mm 0 mps 698 mmHg 97%
    04:00 +18°C° 0 mm 0 mps 699 mmHg 97%
    05:00 +18°C° 0 mm 0 mps 699 mmHg 97%
    06:00 +18°C° 0 mm 0 mps 699 mmHg 97%
    07:00 +21°C° 0 mm 0 mps 700 mmHg 86%
    08:00 +23°C° 0 mm 0 mps 701 mmHg 76%
    09:00 +26°C° 0 mm 0 mps 701 mmHg 65%
    10:00 +29°C° 0 mm 1 mps 701 mmHg 58%
    11:00 +30°C° 0 mm 1 mps 700 mmHg 51%
    12:00 +32°C° 0 mm 1 mps 700 mmHg 44%
    13:00 +31°C° 0 mm 1 mps 699 mmHg 45%
    14:00 +31°C° 0 mm 2 mps 699 mmHg 47%
    15:00 +31°C° 0 mm 2 mps 698 mmHg 48%
    16:00 +29°C° 0 mm 1 mps 698 mmHg 60%
    17:00 +26°C° 0 mm 1 mps 699 mmHg 73%
    18:00 +24°C° 0 mm 1 mps 699 mmHg 85%
    19:00 +23°C° 0 mm 1 mps 699 mmHg 88%
    20:00 +21°C° 0 mm 0 mps 699 mmHg 91%
    21:00 +21°C° 0 mm 0 mps 700 mmHg 95%
    22:00 +20°C° 0.1 mm 0 mps 700 mmHg 96%
    23:00 +20°C° 0.1 mm 0 mps 700 mmHg 96%

    23 October, Tuesday

    Time Temperature Precipitation Wind Pressure Humidity
    00:00 +20°C° 0.1 mm 0 mps 699 mmHg 97%
    01:00 +20°C° 0 mm 0 mps 699 mmHg 97%
    02:00 +20°C° 0 mm 0 mps 699 mmHg 98%
    03:00 +19°C° 0 mm 0 mps 699 mmHg 98%
    04:00 +19°C° 0 mm 0 mps 699 mmHg 98%
    05:00 +19°C° 0 mm 0 mps 700 mmHg 98%
    06:00 +19°C° 0 mm 0 mps 700 mmHg 98%
    07:00 +21°C° 0 mm 0 mps 700 mmHg 88%
    08:00 +24°C° 0 mm 0 mps 701 mmHg 78%
    09:00 +26°C° 0 mm 0 mps 702 mmHg 69%
    10:00 +29°C° 0 mm 1 mps 701 mmHg 62%
    11:00 +30°C° 0 mm 1 mps 700 mmHg 55%
    12:00 +32°C° 0 mm 1 mps 700 mmHg 48%
    13:00 +31°C° 0 mm 1 mps 699 mmHg 49%
    14:00 +31°C° 0 mm 1 mps 699 mmHg 50%
    15:00 +31°C° 0 mm 1 mps 698 mmHg 50%
    16:00 +29°C° 0 mm 1 mps 698 mmHg 62%
    17:00 +26°C° 0 mm 1 mps 699 mmHg 73%
    18:00 +24°C° 0 mm 1 mps 699 mmHg 85%
    19:00 +24°C° 0 mm 1 mps 699 mmHg 88%
    20:00 +21°C° 0 mm 0 mps 700 mmHg 91%
    21:00 +21°C° 0 mm 0 mps 700 mmHg 94%
    22:00 +20°C° 0 mm 0 mps 700 mmHg 95%
    23:00 +20°C° 0 mm 0 mps 700 mmHg 96%
    Show more